Change the Weather History Date:

Wednesday, January 9, 2013

  Actual Average (PASK) Record (PASK)
Temperature  
Mean Temperature 8 °F -  
Max Temperature 9 °F 1 °F 30 °F (2011)
Min Temperature 5 °F -8 °F -43 °F (2009)
Degree Days  
Heating Degree Days 56    
Moisture  
Dew Point 3 °F    
Average Humidity 81    
Maximum Humidity 85    
Minimum Humidity 73    
Precipitation  
Precipitation 0.00 in - - ()
Sea Level Pressure  
Sea Level Pressure 30.15 in    
Wind  
Wind Speed 4 mph (East)    
Max Wind Speed 14 mph    
Max Gust Speed 23 mph    
Visibility 9 miles    
Events Snow    
Averages and records for this station are not official NWS values.
T = Trace of Precipitation, MM = Missing Value Source: NWS Daily Summary

Daily Weather History Graph

Daily Weather History Graph

Search for Another Location

Airport or City:

Trip Planner

Search our weather history database for the weather conditions in past years. The results will help you decide how hot, cold, wet, or windy it might be!

Date:

Astronomy

Jan. 09, 2013 Rise Set
Actual Time 12:10 PM AKST 3:27 PM AKST
Civil Twilight 10:34 AM AKST 5:03 PM AKST
Nautical Twilight 9:17 AM AKST 6:21 PM AKST
Astronomical Twilight 8:11 AM AKST 7:27 PM AKST
Moon 10:05 AM AKST (1/9) 1:39 PM AKST (1/9)
Length of Visible Light 6h 29m
Length of Day
3h 17m
Waning Crescent, 5% of the Moon is Illuminated
Jan 9
Waning Crescent
Jan 11
New
Jan 18
First Quarter
Jan 26
Full
Feb 3
Last Quarter

Hourly Weather History & Observations

Time (AKST) Temp. Windchill Dew Point Humidity Pressure Visibility Wind Dir Wind Speed Gust Speed Precip Events Conditions
12:01 AM 5.0 °F - 1.0 °F 84% 30.23 in 9.0 mi Calm Calm - 0.00 in Snow Light Snow
12:17 AM 6.8 °F -2.0 °F 1.4 °F 79% 30.10 in 7.0 mi East 4.6 mph - 0.00 in Snow Light Snow
1:01 AM 5.0 °F -2.1 °F 1.0 °F 84% 30.24 in 4.0 mi ENE 3.5 mph - 0.00 in Snow Light Snow
1:40 AM 5.0 °F - 1.4 °F 85% 30.10 in 7.0 mi Calm Calm - 0.00 in Snow Light Snow
2:01 AM 5.0 °F - 1.0 °F 84% 30.25 in 9.0 mi Calm Calm - 0.00 in Snow Light Snow
3:01 AM 5.0 °F - -0.0 °F 80% 30.26 in 10.0 mi Calm Calm - 0.00 in   Overcast
4:01 AM 6.1 °F - 1.0 °F 80% 30.27 in 9.0 mi Calm Calm - 0.00 in Snow Light Snow
5:01 AM 6.1 °F -0.9 °F -0.9 °F 73% 30.27 in 9.0 mi East 3.5 mph - 0.00 in   Overcast
6:01 AM 6.1 °F -0.9 °F -0.0 °F 76% 30.26 in 10.0 mi East 3.5 mph - 0.00 in   Overcast
7:01 AM 6.1 °F - -0.9 °F 73% 30.25 in 10.0 mi Calm Calm - 0.00 in   Overcast
8:01 AM 6.1 °F -0.9 °F -0.0 °F 76% 30.25 in 9.0 mi East 3.5 mph - 0.00 in Snow Light Snow
9:01 AM 6.1 °F -2.8 °F -0.0 °F 76% 30.25 in 10.0 mi East 4.6 mph - 0.00 in   Overcast
10:01 AM 7.0 °F 0.1 °F 1.9 °F 80% 30.25 in 9.0 mi ENE 3.5 mph - 0.00 in Snow Light Snow
11:01 AM 8.1 °F 1.4 °F 3.0 °F 80% 30.23 in 9.0 mi ENE 3.5 mph - 0.00 in Snow Light Snow
12:01 PM 8.1 °F -2.0 °F 3.9 °F 83% 30.22 in 9.0 mi East 5.8 mph - 0.00 in Snow Light Snow
12:12 PM 8.6 °F -1.3 °F 3.2 °F 79% 30.08 in 9.0 mi East 5.8 mph - 0.00 in Snow Light Snow
1:01 PM 9.0 °F - 5.0 °F 84% 30.21 in 9.0 mi Calm Calm - 0.00 in Snow Light Snow
2:01 PM 10.0 °F - 6.1 °F 84% 30.19 in 9.0 mi Calm Calm - 0.00 in Snow Light Snow
3:01 PM 10.9 °F 1.4 °F 7.0 °F 84% 30.17 in 9.0 mi East 5.8 mph - 0.00 in Snow Light Snow
4:01 PM 10.9 °F 0.2 °F 7.0 °F 84% 30.14 in 9.0 mi East 6.9 mph - 0.00 in Snow Light Snow
5:01 PM 12.0 °F -0.4 °F 8.1 °F 84% 30.13 in 9.0 mi East 9.2 mph - 0.00 in Snow Light Snow
6:01 PM 12.9 °F -1.6 °F 8.1 °F 81% 30.11 in 9.0 mi East 12.7 mph - 0.00 in Snow Light Snow
7:01 PM 12.0 °F -3.4 °F 7.0 °F 80% 30.08 in 9.0 mi ENE 13.8 mph - 0.00 in Snow Light Snow
8:01 PM 10.4 °F -2.4 °F 6.8 °F 85% 29.93 in 10.0 mi ENE 9.2 mph - 0.00 in   Scattered Clouds
8:12 PM 10.4 °F -4.8 °F 5.0 °F 79% 29.92 in 10.0 mi East 12.7 mph 23.0 mph 0.00 in   Mostly Cloudy
8:35 PM 10.4 °F -3.3 °F 5.0 °F 79% 29.92 in 10.0 mi East 10.4 mph - 0.00 in   Scattered Clouds
9:01 PM 9.0 °F -3.2 °F 5.0 °F 84% 30.05 in 10.0 mi East 8.1 mph - 0.00 in   Clear
10:01 PM 9.0 °F -4.2 °F 3.9 °F 80% 30.04 in 10.0 mi East 9.2 mph - N/A   Clear
11:01 PM 10.0 °F -5.2 °F 3.9 °F 76% 30.02 in 10.0 mi East 12.7 mph - N/A   Clear